Canyon Ferry Lake Weather Center

Moon Phase Calendar



Canyon Ferry Lake Water Level
Online Cameras

 


      

Current Conditions in Townsend
6/21/2021 9:42:55 PM

73°F
Feels Like 72
Clouds
Humidity
51%
Pressure
29.77"
Wind
1.9 mph (NE)
Dew Point
54°F
UV Index
0/10 (Low)
Visibility
6 mi

Hourly Forecast

Date & Time Mon, Jun 21
9:00 PM
Mon, Jun 21
10:00 PM
Mon, Jun 21
11:00 PM
Tue, Jun 22
12:00 AM
Tue, Jun 22
1:00 AM
Tue, Jun 22
2:00 AM
Tue, Jun 22
3:00 AM
Tue, Jun 22
4:00 AM
Tue, Jun 22
5:00 AM
Tue, Jun 22
6:00 AM
Tue, Jun 22
7:00 AM
Tue, Jun 22
8:00 AM
Tue, Jun 22
9:00 AM
Tue, Jun 22
10:00 AM
Tue, Jun 22
11:00 AM
Tue, Jun 22
12:00 PM
Tue, Jun 22
1:00 PM
Tue, Jun 22
2:00 PM
Tue, Jun 22
3:00 PM
Tue, Jun 22
4:00 PM
Tue, Jun 22
5:00 PM
Tue, Jun 22
6:00 PM
Tue, Jun 22
7:00 PM
Tue, Jun 22
8:00 PM
Tue, Jun 22
9:00 PM
Tue, Jun 22
10:00 PM
Tue, Jun 22
11:00 PM
Wed, Jun 23
12:00 AM
Wed, Jun 23
1:00 AM
Wed, Jun 23
2:00 AM
Wed, Jun 23
3:00 AM
Wed, Jun 23
4:00 AM
Wed, Jun 23
5:00 AM
Wed, Jun 23
6:00 AM
Wed, Jun 23
7:00 AM
Wed, Jun 23
8:00 AM
Wed, Jun 23
9:00 AM
Wed, Jun 23
10:00 AM
Wed, Jun 23
11:00 AM
Wed, Jun 23
12:00 PM
Wed, Jun 23
1:00 PM
Wed, Jun 23
2:00 PM
Wed, Jun 23
3:00 PM
Wed, Jun 23
4:00 PM
Wed, Jun 23
5:00 PM
Wed, Jun 23
6:00 PM
Wed, Jun 23
7:00 PM
Wed, Jun 23
8:00 PM
Condition
Clouds

Clouds

Clouds

Clouds

Clear

Clear

Clear

Clear

Clear

Clouds

Clouds

Clouds

Clouds

Clouds

Clouds

Clouds

Clear

Clear

Clear

Clear

Clear

Clouds

Clouds

Clouds

Clouds

Clouds

Clouds

Clouds

Clouds

Clouds

Clouds

Clouds

Clouds

Clouds

Clouds

Clouds

Rain

Clouds

Clouds

Clouds

Clouds

Clouds

Clouds

Clouds

Clouds

Clouds

Clouds

Clouds
Temperature 72°F73°F71°F68°F65°F62°F58°F58°F57°F57°F63°F67°F71°F75°F79°F82°F85°F86°F88°F89°F88°F88°F86°F82°F74°F69°F67°F66°F66°F64°F63°F64°F63°F63°F66°F69°F70°F73°F77°F80°F81°F83°F85°F86°F86°F85°F84°F80°F
Feels Like 71°F72°F70°F67°F64°F60°F57°F56°F55°F55°F61°F66°F69°F73°F79°F80°F82°F83°F84°F85°F85°F85°F83°F80°F73°F68°F66°F65°F65°F63°F62°F63°F62°F62°F65°F68°F69°F73°F76°F80°F80°F81°F83°F83°F83°F82°F81°F80°F
Cloudiness 18%17%16%15%7%3%0%0%2%11%22%21%16%13%12%14%5%3%2%1%2%12%79%50%67%75%80%83%100%100%100%100%100%100%100%89%93%94%95%81%42%52%54%65%71%64%35%23%
Visibility 6 mi6 mi6 mi6 mi6 mi6 mi6 mi6 mi6 mi6 mi6 mi6 mi6 mi6 mi6 mi6 mi6 mi6 mi6 mi6 mi6 mi6 mi6 mi6 mi6 mi6 mi6 mi6 mi6 mi6 mi6 mi6 mi6 mi6 mi6 mi6 mi6 mi6 mi6 mi6 mi6 mi6 mi6 mi6 mi6 mi6 mi6 mi6 mi
Precipitation 0%0%0%0%0%0%0%0%0%0%0%0%0%0%0%0%0%0%0%0%0%0%0%0%0%0%0%0%0%0%0%0%0%0%9%32%36%33%25%24%12%18%18%14%10%10%0%0%
Humidity 49%51%50%51%52%55%56%56%58%57%53%45%40%35%26%23%22%19%19%19%20%21%23%28%35%45%55%56%54%59%63%60%63%66%63%57%57%49%43%39%37%31%24%20%18%18%20%24%
Dew Point 52°F54°F51°F49°F47°F46°F40°F40°F40°F39°F43°F42°F43°F42°F39°F39°F39°F38°F38°F39°F41°F42°F42°F43°F43°F44°F47°F47°F46°F47°F47°F47°F48°F49°F50°F50°F52°F51°F50°F50°F49°F46°F42°F38°F36°F35°F36°F38°F
Pressure 29.77"29.77"29.77"29.77"29.77"29.77"29.77"29.77"29.77"29.8"29.8"29.77"29.77"29.74"29.71"29.68"29.68"29.65"29.62"29.59"29.59"29.56"29.56"29.59"29.65"29.71"29.74"29.71"29.71"29.74"29.71"29.74"29.74"29.74"29.77"29.77"29.8"29.77"29.77"29.77"29.74"29.71"29.68"29.68"29.65"29.65"29.68"29.71"
Wind Speed 2.8 mph1.9 mph0.5 mph0.6 mph0.8 mph0.6 mph1.5 mph2.5 mph2.6 mph3 mph3.7 mph3.8 mph2.4 mph4 mph8.8 mph14.3 mph16 mph16.5 mph16 mph15.7 mph17.2 mph13.1 mph12.6 mph10.1 mph6.2 mph7.8 mph7.6 mph4.6 mph5.7 mph5.2 mph2.3 mph5.6 mph3.4 mph0.8 mph2 mph1.8 mph2.2 mph3.2 mph5.6 mph4.6 mph4 mph1.5 mph7.8 mph14.1 mph20 mph16.6 mph15.9 mph14.5 mph
Wind
Direction
30°
NNE
50°
NE
73°
ENE
270°
W
266°
W
202°
SSW
162°
SSE
155°
SSE
160°
SSE
159°
SSE
157°
SSE
171°
S
204°
SSW
269°
W
285°
WNW
285°
WNW
299°
WNW
306°
NW
306°
NW
307°
NW
301°
WNW
305°
NW
304°
NW
318°
NW
306°
NW
176°
S
148°
SSE
144°
SE
173°
S
134°
SE
75°
ENE
156°
SSE
148°
SSE
142°
SE
153°
SSE
145°
SE
282°
WNW
298°
WNW
313°
NW
330°
NNW
234°
SW
250°
WSW
281°
W
298°
WNW
310°
NW
316°
NW
306°
NW
313°
NW

Daily Forecast

Date High Low Precip. Humidity
Today
Jun 21

Clear
79 °F
48 °F
0%
35%
Tuesday
Jun 22

Clear
89 °F
57 °F
0%
22%
Wednesday
Jun 23

Rain
85 °F
63 °F
36%
39%
Thursday
Jun 24

Clouds
81 °F
60 °F
25%
24%
Friday
Jun 25

Clouds
76 °F
55 °F
28%
39%
Saturday
Jun 26

Clear
82 °F
52 °F
0%
35%
Sunday
Jun 27

Clear
89 °F
59 °F
0%
34%
Monday
Jun 28

Clear
96 °F
62 °F
0%
32%
Tuesday
Jun 29

Clouds
98 °F
65 °F
0%
25%
Wednesday
Jun 30

Clouds
101 °F
67 °F
26%
29%
Thursday
Jul 1

Rain
87 °F
67 °F
36%
41%
Friday
Jul 2

Clear
100 °F
63 °F
0%
35%
Saturday
Jul 3

Clear
101 °F
67 °F
3%
22%
Sunday
Jul 4

Clear
101 °F
66 °F
0%
23%
Monday
Jul 5

Clouds
104 °F
69 °F
1%
19%
Tuesday
Jul 6

Rain
100 °F
72 °F
20%
17%

Temperature 8-14 Day Outlook



Precipitation 8-14 Day Outlook




Quick Links
Canyon Ferry Lake News
Canyon Ferry Lake Photos
Canyon Ferry Lake Videos




About Us
Contact Us
Site Map
Search Site
Advertise With Us
   
CanyonFerry.LakesOnline.com
THE CANYON FERRY LAKE WEBSITE

Copyright 2021, Lakes Online
Privacy    |    Legal